Time,TemperatureF,DewpointF,PressureIn,WindDirection,WindDirectionDegrees,WindSpeedMPH,WindSpeedGustMPH,Humidity,HourlyPrecipIn,Conditions,Clouds,dailyrainin,SolarRadiationWatts/m^2,SoftwareType,DateUTC
2013-09-22 00:11:00,48.4,47.0,30.32,SW,215,0.0,0.0,95,0.00,,,0.00,0,weatherlink.com 1.10,2013-09-21 22:11:00,
2013-09-22 00:26:00,47.9,47.0,30.32,SW,215,0.0,0.0,95,0.00,,,0.00,0,weatherlink.com 1.10,2013-09-21 22:26:00,
2013-09-22 00:41:00,47.7,47.0,30.32,SW,215,0.0,0.0,96,0.00,,,0.00,0,weatherlink.com 1.10,2013-09-21 22:41:00,
2013-09-22 00:56:00,47.5,47.0,30.32,SW,215,0.0,0.0,96,0.00,,,0.00,0,weatherlink.com 1.10,2013-09-21 22:56:00,
2013-09-22 01:11:00,47.6,47.0,30.32,SW,215,0.0,0.0,96,0.00,,,0.00,0,weatherlink.com 1.10,2013-09-21 23:11:00,
2013-09-22 01:26:00,47.5,47.0,30.32,SW,215,0.0,0.0,96,0.00,,,0.00,0,weatherlink.com 1.10,2013-09-21 23:26:00,
2013-09-22 01:41:00,47.5,47.0,30.31,SW,215,0.0,0.0,96,0.00,,,0.00,0,weatherlink.com 1.10,2013-09-21 23:41:00,
2013-09-22 01:56:00,47.7,47.0,30.32,SW,215,0.0,1.0,97,0.00,,,0.00,0,weatherlink.com 1.10,2013-09-21 23:56:00,
2013-09-22 02:11:00,47.6,47.0,30.32,SW,215,0.0,1.0,97,0.00,,,0.00,0,weatherlink.com 1.10,2013-09-22 00:11:00,
2013-09-22 02:26:00,47.3,46.0,30.31,SW,215,0.0,0.0,96,0.00,,,0.00,0,weatherlink.com 1.10,2013-09-22 00:26:00,
2013-09-22 02:41:00,47.2,46.0,30.32,SW,215,0.0,0.0,96,0.00,,,0.00,0,weatherlink.com 1.10,2013-09-22 00:41:00,
2013-09-22 02:56:00,47.1,46.0,30.32,SW,215,0.0,0.0,97,0.00,,,0.00,0,weatherlink.com 1.10,2013-09-22 00:56:00,
2013-09-22 03:11:00,47.2,46.0,30.32,SSW,213,0.0,0.0,97,0.00,,,0.00,0,weatherlink.com 1.10,2013-09-22 01:11:00,
2013-09-22 03:26:00,47.2,46.0,30.32,SSW,213,0.0,0.0,97,0.00,,,0.00,0,weatherlink.com 1.10,2013-09-22 01:26:00,
2013-09-22 03:41:00,47.1,46.0,30.32,SSW,213,0.0,0.0,97,0.00,,,0.00,0,weatherlink.com 1.10,2013-09-22 01:41:00,
2013-09-22 03:56:00,46.9,46.0,30.31,SSW,213,0.0,0.0,96,0.00,,,0.00,0,weatherlink.com 1.10,2013-09-22 01:56:00,
2013-09-22 04:11:00,46.5,46.0,30.32,SSW,213,0.0,0.0,96,0.00,,,0.00,0,weatherlink.com 1.10,2013-09-22 02:11:00,
2013-09-22 04:26:00,46.3,45.0,30.31,SSW,213,0.0,0.0,96,0.00,,,0.00,0,weatherlink.com 1.10,2013-09-22 02:26:00,
2013-09-22 04:41:00,46.4,46.0,30.31,SW,214,0.0,0.0,97,0.00,,,0.00,0,weatherlink.com 1.10,2013-09-22 02:41:00,
2013-09-22 04:56:00,46.3,46.0,30.32,SW,214,0.0,1.0,97,0.00,,,0.00,0,weatherlink.com 1.10,2013-09-22 02:56:00,
2013-09-22 05:11:00,46.3,46.0,30.32,SW,214,0.0,0.0,97,0.00,,,0.00,0,weatherlink.com 1.10,2013-09-22 03:11:00,
2013-09-22 05:26:00,46.4,46.0,30.32,SSW,192,0.0,0.0,97,0.00,,,0.00,0,weatherlink.com 1.10,2013-09-22 03:26:00,
2013-09-22 05:41:00,46.5,46.0,30.31,SSW,192,0.0,1.0,97,0.00,,,0.00,0,weatherlink.com 1.10,2013-09-22 03:41:00,
2013-09-22 05:56:00,46.5,46.0,30.32,SSW,192,0.0,0.0,97,0.00,,,0.00,0,weatherlink.com 1.10,2013-09-22 03:56:00,
2013-09-22 06:11:00,46.3,46.0,30.32,SSW,192,0.0,0.0,97,0.00,,,0.00,0,weatherlink.com 1.10,2013-09-22 04:11:00,
2013-09-22 06:26:00,46.1,45.0,30.32,SE,143,0.0,0.0,97,0.00,,,0.00,0,weatherlink.com 1.10,2013-09-22 04:26:00,
2013-09-22 06:41:00,45.9,45.0,30.32,SE,146,0.0,1.0,97,0.00,,,0.00,0,weatherlink.com 1.10,2013-09-22 04:41:00,
2013-09-22 06:56:00,46.0,45.0,30.32,SSE,152,0.0,1.0,97,0.00,,,0.00,7,weatherlink.com 1.10,2013-09-22 04:56:00,
2013-09-22 07:11:00,46.1,45.0,30.32,South,174,0.0,1.0,97,0.00,,,0.00,21,weatherlink.com 1.10,2013-09-22 05:11:00,
2013-09-22 07:27:00,46.6,46.0,30.32,South,181,0.0,1.0,97,0.00,,,0.00,30,weatherlink.com 1.10,2013-09-22 05:27:00,
2013-09-22 07:42:00,47.1,46.0,30.32,SW,236,0.0,1.0,97,0.00,,,0.00,49,weatherlink.com 1.10,2013-09-22 05:42:00,
2013-09-22 07:57:00,47.6,47.0,30.32,WSW,248,1.0,2.0,98,0.00,,,0.00,56,weatherlink.com 1.10,2013-09-22 05:57:00,
2013-09-22 08:12:00,48.1,48.0,30.32,SSW,212,0.0,1.0,98,0.00,,,0.00,67,weatherlink.com 1.10,2013-09-22 06:12:00,
2013-09-22 08:27:00,48.5,48.0,30.32,SSE,167,0.0,4.0,97,0.00,,,0.00,100,weatherlink.com 1.10,2013-09-22 06:27:00,
2013-09-22 08:42:00,49.1,48.0,30.32,SSW,201,0.0,3.0,97,0.00,,,0.00,113,weatherlink.com 1.10,2013-09-22 06:42:00,
2013-09-22 08:57:00,49.9,49.0,30.32,SW,220,1.0,4.0,96,0.00,,,0.00,135,weatherlink.com 1.10,2013-09-22 06:57:00,
2013-09-22 09:12:00,50.7,49.0,30.32,SW,215,1.0,3.0,95,0.00,,,0.00,156,weatherlink.com 1.10,2013-09-22 07:12:00,
2013-09-22 09:27:00,51.5,50.0,30.32,SSW,213,0.0,4.0,94,0.00,,,0.00,183,weatherlink.com 1.10,2013-09-22 07:27:00,
2013-09-22 09:42:00,52.1,50.0,30.32,SW,222,1.0,4.0,92,0.00,,,0.00,162,weatherlink.com 1.10,2013-09-22 07:42:00,
2013-09-22 09:57:00,52.9,51.0,30.32,SSW,194,0.0,3.0,93,0.00,,,0.00,271,weatherlink.com 1.10,2013-09-22 07:57:00,
2013-09-22 10:12:00,54.9,52.0,30.32,South,191,0.0,4.0,88,0.00,,,0.00,269,weatherlink.com 1.10,2013-09-22 08:12:00,
2013-09-22 10:27:00,55.4,52.0,30.32,SSE,153,0.0,5.0,89,0.00,,,0.00,239,weatherlink.com 1.10,2013-09-22 08:27:00,
2013-09-22 10:42:00,56.0,52.0,30.32,SW,225,3.0,4.0,86,0.00,,,0.00,257,weatherlink.com 1.10,2013-09-22 08:42:00,
2013-09-22 10:57:00,56.6,53.0,30.31,SSW,206,0.0,5.0,86,0.00,,,0.00,519,weatherlink.com 1.10,2013-09-22 08:57:00,
2013-09-22 11:12:00,58.2,53.0,30.31,SW,217,1.0,5.0,82,0.00,,,0.00,485,weatherlink.com 1.10,2013-09-22 09:12:00,
2013-09-22 11:27:00,59.9,54.0,30.31,NW,317,0.0,6.0,81,0.00,,,0.00,424,weatherlink.com 1.10,2013-09-22 09:27:00,
2013-09-22 11:42:00,59.1,54.0,30.30,NNW,348,0.0,3.0,82,0.00,,,0.00,315,weatherlink.com 1.10,2013-09-22 09:42:00,
2013-09-22 11:57:00,59.4,53.0,30.30,SW,223,1.0,6.0,80,0.00,,,0.00,330,weatherlink.com 1.10,2013-09-22 09:57:00,
2013-09-22 12:12:00,59.6,54.0,30.30,West,261,0.0,5.0,81,0.00,,,0.00,297,weatherlink.com 1.10,2013-09-22 10:12:00,
2013-09-22 12:27:00,59.9,53.0,30.30,West,277,0.0,4.0,79,0.00,,,0.00,311,weatherlink.com 1.10,2013-09-22 10:27:00,
2013-09-22 12:42:00,60.5,54.0,30.30,ESE,108,0.0,5.0,78,0.00,,,0.00,302,weatherlink.com 1.10,2013-09-22 10:42:00,
2013-09-22 13:13:00,60.9,53.0,30.29,South,169,1.0,6.0,76,0.00,,,0.00,390,weatherlink.com 1.10,2013-09-22 11:13:00,
2013-09-22 13:28:00,61.2,52.0,30.29,South,184,3.0,7.0,72,0.00,,,0.00,206,weatherlink.com 1.10,2013-09-22 11:28:00,
2013-09-22 13:43:00,60.2,52.0,30.29,SW,227,0.0,3.0,74,0.00,,,0.00,185,weatherlink.com 1.10,2013-09-22 11:43:00,
2013-09-22 13:58:00,61.4,52.0,30.28,WSW,240,3.0,4.0,72,0.00,,,0.00,311,weatherlink.com 1.10,2013-09-22 11:58:00,
2013-09-22 14:13:00,62.0,52.0,30.28,WSW,248,0.0,6.0,69,0.00,,,0.00,257,weatherlink.com 1.10,2013-09-22 12:13:00,
2013-09-22 14:28:00,61.4,52.0,30.27,South,191,1.0,7.0,70,0.00,,,0.00,269,weatherlink.com 1.10,2013-09-22 12:28:00,
2013-09-22 14:43:00,61.6,52.0,30.27,SSW,200,0.0,4.0,72,0.00,,,0.00,325,weatherlink.com 1.10,2013-09-22 12:43:00,
2013-09-22 14:58:00,61.7,51.0,30.27,SW,227,3.0,6.0,67,0.00,,,0.00,207,weatherlink.com 1.10,2013-09-22 12:58:00,
2013-09-22 15:13:00,60.8,51.0,30.27,NW,313,1.0,8.0,71,0.00,,,0.00,229,weatherlink.com 1.10,2013-09-22 13:13:00,
2013-09-22 15:28:00,60.9,52.0,30.26,SSW,194,0.0,4.0,73,0.00,,,0.00,221,weatherlink.com 1.10,2013-09-22 13:28:00,
2013-09-22 15:43:00,61.5,52.0,30.27,SW,220,2.0,4.0,70,0.00,,,0.00,223,weatherlink.com 1.10,2013-09-22 13:43:00,
2013-09-22 15:58:00,61.3,52.0,30.26,South,171,0.0,2.0,71,0.00,,,0.00,70,weatherlink.com 1.10,2013-09-22 13:58:00,
2013-09-22 16:13:00,60.2,52.0,30.26,SSE,155,2.0,3.0,74,0.00,,,0.00,54,weatherlink.com 1.10,2013-09-22 14:13:00,
2013-09-22 16:28:00,59.7,52.0,30.25,North,350,1.0,2.0,76,0.00,,,0.00,62,weatherlink.com 1.10,2013-09-22 14:28:00,
2013-09-22 16:43:00,59.5,52.0,30.25,WSW,240,0.0,2.0,76,0.00,,,0.00,51,weatherlink.com 1.10,2013-09-22 14:43:00,
2013-09-22 16:58:00,59.3,52.0,30.25,SSW,203,0.0,0.0,78,0.00,,,0.00,62,weatherlink.com 1.10,2013-09-22 14:58:00,
2013-09-22 17:13:00,59.3,52.0,30.24,South,182,0.0,2.0,77,0.00,,,0.00,53,weatherlink.com 1.10,2013-09-22 15:13:00,
2013-09-22 17:28:00,59.1,52.0,30.24,SW,220,0.0,4.0,78,0.00,,,0.00,46,weatherlink.com 1.10,2013-09-22 15:28:00,
2013-09-22 17:43:00,58.9,52.0,30.24,SW,220,1.0,3.0,79,0.00,,,0.00,33,weatherlink.com 1.10,2013-09-22 15:43:00,
2013-09-22 17:58:00,58.6,52.0,30.24,SW,224,0.0,2.0,79,0.00,,,0.00,18,weatherlink.com 1.10,2013-09-22 15:58:00,
2013-09-22 18:13:00,58.4,53.0,30.23,SW,225,0.0,1.0,81,0.00,,,0.00,11,weatherlink.com 1.10,2013-09-22 16:13:00,
2013-09-22 18:28:00,58.0,53.0,30.23,SW,236,0.0,2.0,82,0.00,,,0.00,9,weatherlink.com 1.10,2013-09-22 16:28:00,
2013-09-22 18:43:00,57.7,53.0,30.23,SW,235,0.0,1.0,83,0.00,,,0.00,7,weatherlink.com 1.10,2013-09-22 16:43:00,
2013-09-22 18:58:00,57.3,52.0,30.23,SSW,212,0.0,2.0,83,0.00,,,0.00,0,weatherlink.com 1.10,2013-09-22 16:58:00,
2013-09-22 19:13:00,57.0,52.0,30.22,SSW,198,0.0,2.0,84,0.00,,,0.00,0,weatherlink.com 1.10,2013-09-22 17:13:00,
2013-09-22 19:28:00,56.7,52.0,30.22,South,189,0.0,3.0,83,0.00,,,0.00,0,weatherlink.com 1.10,2013-09-22 17:28:00,
2013-09-22 19:44:00,56.6,52.0,30.22,SW,232,1.0,3.0,84,0.00,,,0.00,0,weatherlink.com 1.10,2013-09-22 17:44:00,
2013-09-22 19:58:00,56.2,52.0,30.21,SW,236,0.0,2.0,85,0.00,,,0.00,0,weatherlink.com 1.10,2013-09-22 17:58:00,
2013-09-22 20:13:00,56.0,52.0,30.22,SW,222,0.0,3.0,85,0.00,,,0.00,0,weatherlink.com 1.10,2013-09-22 18:13:00,
2013-09-22 20:28:00,55.7,51.0,30.22,SSW,211,0.0,2.0,85,0.00,,,0.00,0,weatherlink.com 1.10,2013-09-22 18:28:00,
2013-09-22 20:43:00,55.4,52.0,30.22,SW,228,0.0,2.0,87,0.00,,,0.00,0,weatherlink.com 1.10,2013-09-22 18:43:00,
2013-09-22 20:58:00,55.4,52.0,30.22,SW,226,0.0,2.0,87,0.00,,,0.00,0,weatherlink.com 1.10,2013-09-22 18:58:00,
2013-09-22 21:13:00,55.4,52.0,30.21,SW,215,0.0,2.0,87,0.00,,,0.00,0,weatherlink.com 1.10,2013-09-22 19:13:00,
2013-09-22 21:28:00,55.6,52.0,30.22,SSW,213,0.0,3.0,86,0.00,,,0.00,0,weatherlink.com 1.10,2013-09-22 19:28:00,
2013-09-22 21:43:00,55.8,52.0,30.21,SSW,199,0.0,2.0,86,0.00,,,0.00,0,weatherlink.com 1.10,2013-09-22 19:43:00,
2013-09-22 21:58:00,55.9,52.0,30.21,South,191,0.0,4.0,86,0.00,,,0.00,0,weatherlink.com 1.10,2013-09-22 19:58:00,
2013-09-22 22:13:00,55.8,51.0,30.21,SSW,209,3.0,4.0,85,0.00,,,0.00,0,weatherlink.com 1.10,2013-09-22 20:13:00,
2013-09-22 22:28:00,55.7,51.0,30.22,SW,217,1.0,3.0,85,0.00,,,0.00,0,weatherlink.com 1.10,2013-09-22 20:28:00,
2013-09-22 22:43:00,55.7,52.0,30.22,SSW,194,0.0,1.0,86,0.00,,,0.00,0,weatherlink.com 1.10,2013-09-22 20:43:00,
2013-09-22 22:58:00,55.4,52.0,30.22,SW,226,0.0,3.0,87,0.00,,,0.00,0,weatherlink.com 1.10,2013-09-22 20:58:00,
2013-09-22 23:13:00,55.3,52.0,30.21,SW,228,0.0,3.0,87,0.00,,,0.00,0,weatherlink.com 1.10,2013-09-22 21:13:00,
2013-09-22 23:28:00,55.2,51.0,30.21,SW,214,0.0,3.0,87,0.00,,,0.00,0,weatherlink.com 1.10,2013-09-22 21:28:00,
2013-09-22 23:43:00,55.2,51.0,30.20,WSW,249,0.0,3.0,87,0.00,,,0.00,0,weatherlink.com 1.10,2013-09-22 21:43:00,
2013-09-22 23:58:00,55.5,51.0,30.20,SW,219,0.0,3.0,86,0.00,,,0.00,0,weatherlink.com 1.10,2013-09-22 21:58:00,